"Pseudo-MPEC" for VAUQ055

Created 2025 Apr 20 20:31:03 UT using Find_Orb

Click here for an explanation of pseudo-MPECs

 
 Astrometry: 
     VAUQ055*KC2025 03 31.86378 14 59 44.22 +49 29 01.8    ~41AH 20.9 GVNEOCPL59
     VAUQ055 KC2025 03 31.90849 14 59 43.27 +49 26 35.6    ~41AH 20.6 GVNEOCPL59

Station data:
(L59) Compustar Observatory, Rouen  (N49.438399 E1.226060)  France.  Observer
   B. Vauquelin. 0.4-m f/6.35 reflector + CCD.

Orbital elements:  VAUQ055
   Perihelion 2025 Apr 11.79339 +/- 28.4 TT = 19:02:29 (JD 2460777.29339)
Epoch 2025 Apr  1.0 TT = JDT 2460766.5   Earth MOID: 0.0744      AutoNEOCP
M 355.34518960 +/- 14               (J2000 ecliptic)
n   0.43126474 +/- 0.31             Peri.  167.63044 +/- 90
a   1.73502901 +/- 0.831            Node    33.92730 +/- 60
e   0.3810277 +/- 0.269             Incl.   17.98484 +/- 8
P   2.285/834.738d         H 22.96  G  0.15   U 12.0  SR
q 1.07393476 +/- 0.0951    Q 2.39612325 +/- 41.5
From 2 observations 2025 Mar. 31 (64.4 min); mean residual 0".01
Residuals in arcseconds: 
250331 L59  .01+  .00     250331 L59  .01+  .00     

Ephemerides (geocentric):
Date (UTC) HH   RA             Dec           delta  r     elong  mag " sig PA
---- --------  ------------   ------------  ------ ------ -----  --- --------
2025 04 20 21  14 37 04.903   -01 36 55.99  .07542 1.0779 165.3 18.3  80d 117
2025 04 20 22  14 36 59.916   -01 48 30.31  .07539 1.0780 165.5 18.3  80d 117
2025 04 20 23  14 36 54.921   -02 00 05.16  .07536 1.0780 165.7 18.3  80d 117
2025 04 21 00  14 36 49.918   -02 11 40.53  .07534 1.0781 165.8 18.3  80d 117
2025 04 21 01  14 36 44.906   -02 23 16.40  .07531 1.0781 166.0 18.3  80d 117
2025 04 21 02  14 36 39.886   -02 34 52.74  .07529 1.0781 166.2 18.3  80d 117
2025 04 21 03  14 36 34.858   -02 46 29.55  .07527 1.0782 166.3 18.3  80d 117
2025 04 21 04  14 36 29.822   -02 58 06.81  .07525 1.0782 166.5 18.3  80d 117
2025 04 21 05  14 36 24.777   -03 09 44.50  .07522 1.0782 166.7 18.2  80d 117
2025 04 21 06  14 36 19.725   -03 21 22.59  .07520 1.0783 166.8 18.2  80d 117
2025 04 21 07  14 36 14.664   -03 33 01.08  .07519 1.0783 167.0 18.2  80d 117
2025 04 21 08  14 36 09.595   -03 44 39.94  .07517 1.0784 167.2 18.2  80d 117
2025 04 21 09  14 36 04.518   -03 56 19.15  .07515 1.0784 167.3 18.2  80d 117
2025 04 21 10  14 35 59.433   -04 07 58.71  .07514 1.0784 167.5 18.2  80d 117
2025 04 21 11  14 35 54.339   -04 19 38.58  .07512 1.0785 167.6 18.2  80d 117
2025 04 21 12  14 35 49.238   -04 31 18.76  .07511 1.0785 167.8 18.2  80d 117
2025 04 21 13  14 35 44.129   -04 42 59.22  .07509 1.0786 168.0 18.2  80d 117
2025 04 21 14  14 35 39.011   -04 54 39.94  .07508 1.0786 168.1 18.2  80d 117
2025 04 21 15  14 35 33.886   -05 06 20.91  .07507 1.0786 168.3 18.2  80d 117
2025 04 21 16  14 35 28.752   -05 18 02.11  .07506 1.0787 168.4 18.2  80d 117
2025 04 21 17  14 35 23.610   -05 29 43.52  .07505 1.0787 168.6 18.2  80d 117
2025 04 21 18  14 35 18.461   -05 41 25.12  .07504 1.0787 168.7 18.2  80d 117
2025 04 21 19  14 35 13.303   -05 53 06.89  .07503 1.0788 168.9 18.2  80d 117
2025 04 21 20  14 35 08.137   -06 04 48.82  .07503 1.0788 169.0 18.2  80d 117
2025 04 21 21  14 35 02.964   -06 16 30.88  .07502 1.0789 169.2 18.2  80d 117
2025 04 21 22  14 34 57.783   -06 28 13.07  .07502 1.0789 169.3 18.1  80d 117
2025 04 21 23  14 34 52.593   -06 39 55.35  .07501 1.0790 169.5 18.1  80d 117
2025 04 22 00  14 34 47.396   -06 51 37.71  .07501 1.0790 169.6 18.1  80d 117
2025 04 22 01  14 34 42.191   -07 03 20.13  .07501 1.0790 169.8 18.1  80d 117
2025 04 22 02  14 34 36.978   -07 15 02.59  .07501 1.0791 169.9 18.1  80d 117
2025 04 22 03  14 34 31.757   -07 26 45.08  .07501 1.0791 170.1 18.1  80d 117
2025 04 22 04  14 34 26.528   -07 38 27.57  .07501 1.0792 170.2 18.1  80d 117
2025 04 22 05  14 34 21.292   -07 50 10.06  .07501 1.0792 170.3 18.1  80d 117
2025 04 22 06  14 34 16.047   -08 01 52.51  .07501 1.0792 170.5 18.1  80d 117
2025 04 22 07  14 34 10.795   -08 13 34.90  .07502 1.0793 170.6 18.1  80d 117
2025 04 22 08  14 34 05.535   -08 25 17.23  .07502 1.0793 170.7 18.1  80d 117
2025 04 22 09  14 34 00.268   -08 36 59.48  .07503 1.0794 170.9 18.1  80d 117
2025 04 22 10  14 33 54.993   -08 48 41.61  .07503 1.0794 171.0 18.1  80d 117
2025 04 22 11  14 33 49.710   -09 00 23.62  .07504 1.0795 171.1 18.1  80d 117
2025 04 22 12  14 33 44.419   -09 12 05.49  .07505 1.0795 171.2 18.1  80d 117
2025 04 22 13  14 33 39.121   -09 23 47.20  .07506 1.0795 171.4 18.1  80d 117
2025 04 22 14  14 33 33.815   -09 35 28.72  .07507 1.0796 171.5 18.1  80d 117
2025 04 22 15  14 33 28.501   -09 47 10.05  .07508 1.0796 171.6 18.1  80d 117
2025 04 22 16  14 33 23.180   -09 58 51.15  .07509 1.0797 171.7 18.1  80d 117
2025 04 22 17  14 33 17.851   -10 10 32.02  .07511 1.0797 171.8 18.1  79d 117
2025 04 22 18  14 33 12.514   -10 22 12.64  .07512 1.0798 171.9 18.0  79d 117
2025 04 22 19  14 33 07.170   -10 33 52.98  .07514 1.0798 172.0 18.0  79d 117
2025 04 22 20  14 33 01.819   -10 45 33.04  .07515 1.0798 172.1 18.0  79d 117